Location: Eenumerhoogte
(53.3420°N, 6.7843°E)
Time: 22:38:06
(UTC+00:00)

Cosmos 468 Rocket - Pass Details

Date: 15 May 2026
Orbit: 740 x 773 km, 74.0° (Epoch: 10 June)

Event Time Altitude Azimuth Distance (km) Brightness Sun altitude
Exits shadow 22:30:14 20° 204° (SSW) 1,747 5.4 -16.5°
Maximum altitude 22:34:01 90° 109° (ESE) 777 4.0 -16.6°
Drops below altitude 10° 22:39:17 10° 26° (NNE) 2,314 7.2 -16.8°
Sets 22:41:40 0° 27° (NNE) 3,239 8.1 -16.9°
